Regional Weather Roundup
Issued by NWS

Home | Current Version | Previous Version | Graphics & Text | Print | Product List | Glossary On
Versions: 1 2 3 4 5 6 7 8 9 10 11 12 13 14 15 16 17 18 19 20 21 22 23 24 25 26 27 28 29 30 31 32 33 34 35 36 37 38 39 40 41 42 43 44 45 46 47 48 49 50
000
ASUS43 KFSD 010610
RWRSD

WEATHER ROUNDUP FOR SOUTH DAKOTA
NATIONAL WEATHER SERVICE SIOUX FALLS SD
1200 AM CST SUN FEB 01 2015

NOTE: "FAIR" INDICATES FEW OR NO CLOUDS BELOW 12,000 FEET WITH NO
SIGNIFICANT WEATHER AND/OR OBSTRUCTIONS TO VISIBILITY.


SDZ001>005-009-010-012>017-010700-
NORTHWEST AND NORTH CENTRAL SOUTH DAKOTA

CITY           SKY/WX    TMP DP  RH WIND       PRES   REMARKS
BUFFALO          N/A      5   0  79 NE16      30.17R WCI -14
FAITH            N/A      5   0  79 NE16      30.24R WCI -14
MOBRIDGE       LGT SNOW   5  -2  72 NE23      30.30R WCI -17
$$

SDZ012>016-024>037-041>051-057-063-072>074-010700-
SOUTHWEST AND SOUTH CENTRAL SOUTH DAKOTA

CITY           SKY/WX    TMP DP  RH WIND       PRES   REMARKS
RAPID CTY ARPT LGT SNOW  11   8  88 N14       30.17R FOG     WCI  -5
PIERRE         CLOUDY    11   0  61 NE14      30.24R WCI  -5
CUSTER         CLOUDY    13   9  84 CALM      29.96R
ELLSWORTH AFB  FLURRIES  10   9  92 VRB7      30.17  WCI   0
PHILIP         FLURRIES  12   4  70 NE14      30.23R WCI  -3
PINE RIDGE     LGT SNOW  15  11  83 N9        30.10R FOG     WCI   3
WINNER         LGT SNOW  12   7  80 N18       30.16R VSB 3/4 WCI  -6
$$

SDZ004>011-016>023-039-040-010700-
NORTHEAST SOUTH DAKOTA

CITY           SKY/WX    TMP DP  RH WIND       PRES   REMARKS
ABERDEEN       CLOUDY     4  -6  63 N20G29    30.33R WCI -17
WATERTOWN      LGT SNOW   9   2  73 N21       30.18R WCI -11
SISSETON         N/A      5  -3  69 N20G28    30.32R WCI -15
$$

SDZ017-020-022-023-036>040-048>070-010700-
SOUTHEAST SOUTH DAKOTA

CITY           SKY/WX    TMP DP  RH WIND       PRES   REMARKS
SIOUX FALLS    LGT SNOW  23  20  88 NE21G30   30.05S VSB 1   WCI   8
HURON          CLOUDY    12   2  64 N18       30.22R WCI  -6
CHAMBERLAIN    LGT SNOW   9   6  87 N14       30.18R WCI  -7
MITCHELL       LGT SNOW  16  13  88 N22       30.15R VSB 3/4 WCI  -2
YANKTON          N/A     25  21  86 N17G23    30.02S VSB 3/4 WCI  11
$$

ABBREVIATIONS USED IN REMARKS
   TC - TEMPERATURE IN CELSIUS
  WCI - WIND CHILL INDEX
   HX - HEAT INDEX
  VSB - VISIBILITY




USA.gov is the U.S. government's official web portal to all federal, state and local government web resources and services.